THORAD AGENA D DEB, 22532

Orbit data source: Space-Track

THORAD AGENA D DEB, 22532 is space debris in SSO originally from a launch on Wed, 08 Apr 1970 UTC launched from the Air Force Western Test Range (AFWTR). Debris objects in space refer to the collection of defunct objects orbiting the Earth. Examples of debris include non-operational satellites, rocket bodies, and fragments generated from explosions, collisions, or faulty payload assembly.

Loading next visibility...
Identifier
22532, 1970-025QN
Orbit
SSO
Country
Flag of USUS
Related business
Manufacturer
Unknown
Mission
Spacecraft
Bus & Motor
Unknown
Mass
Unknown
Launch date (UTC)
1970-04-08 (56 years ago)
Launch vehicle
Unknown
Launch site
Air Force Western Test Range (AFWTR)
Object type
Payload
Rocket body
Debris
Shape & HBR
Unknown shape, 0.1 m
Radar Cross Section
Small (<0.1 m²)

Expand to show TLE details & history
Last TLE update: 9 hours ago

TLE from 9 hours ago
0 THORAD AGENA D DEB
1 22532U 70025QN  26036.44814046  .00001398  00000-0  16421-2 0  9993
2 22532 100.0897 219.0017 0005680 205.5388 184.2243 13.70167575634617
Epoch: 2026-02-05T10:45Z
TLE epoch observation values (Epoch: 2026-02-05T10:45:19.335Z)
Latitude
29.30132°
Longitude
-83.63051°
Altitude
1,006.689 km
Speed
7.349 km/s
True Right ascension
14h 13m 12s
True Declination
29° 09' 35"
Sunlit
Object was in daylight at epoch
Visualization orbit readout
Latitude
Unknown
Longitude
Unknown
Altitude
Unknown
Speed
Unknown
Apparent Right ascension
Unknown
Apparent Declination
Unknown
Sunlit
N/A
Visualization observer readout
Local Sidereal Time
21:33:34
Azimuth
Unknown
Elevation
Unknown
Doppler factor
Unknown
Orbital elements
Apogee altitude
1,000.453 km
Perigee altitude
992.076 km
Semi-major axis
7,374.402 km
Eccentricity
0.00057
Inclination
100.0897°
RAAN
219.0017°
Arg. of periapsis
205.5388°
True anomaly
184.21951°
Mean anomaly
184.2243°
Eccentric anomaly
184.2219°
Mean motion
3.42731 °/min
Orbital period
105.04 mins
BSTAR
0.0016421
Loading maneuver chart data...
Computing Atmospheric mass density...

Documentation

Showing up to 5 results
|